Regional Weather Roundup
Issued by NWS Charleston, SC

Current Version | Previous Version | Graphics & Text | Print | Product List | Glossary On
Versions: 1 2 3 4 5 6 7 8 9 10 11 12 13 14 15 16 17 18 19 20 21 22 23 24 25 26 27 28 29 30 31 32 33 34 35 36 37 38 39 40 41 42 43 44 45 46 47 48 49 50
768 ASUS42 KCHS 250612 RWRCHS REGIONAL WEATHER ROUNDUP NATIONAL WEATHER SERVICE CHARLESTON SC 200 AM EDT SAT MAR 25 2017 NOTE: "FAIR" INDICATES FEW OR NO CLOUDS BELOW 12,000 FEET WITH NO SIGNIFICANT WEATHER AND/OR OBSTRUCTIONS TO VISIBILITY. NOT ALL STATIONS ARE QUALITY CONTROLLED. USE DATA WITH CAUTION... ESPECIALLY DEWPOINT OBSERVATIONS. SCZ027-030-031-034>040-042>050-250700- ...SOUTHEAST SOUTH CAROLINA... CITY SKY/WX TMP DP RH WIND PRES REMARKS N CHARLESTON CLOUDY 58 54 86 NE3 30.35F 6HR MIN TEMP: 55; 6HR MAX TEMP: 65; WATERFRONT PRK N/A 60 58 93 CALM 30.36S JOHNS ISLAND CLOUDY 59 57 94 CALM 30.35F PINOPOLIS N/A 59 55 88 VRB2 30.27F MONCKS CORNER CLOUDY 52 48 87 CALM 30.35F SUMMERVILLE CLOUDY 54 52 94 CALM 30.36F BEAUFORT MCAS CLOUDY 61 58 90 CALM 30.34F 6HR MIN TEMP: 59; 6HR MAX TEMP: 67; BEAUFORT ARPT MOCLDY 63 55 77 CALM 30.34F HILTON HEAD IS MOCLDY 64 57 77 SE5 30.34F WALTERBORO CLOUDY 54 52 94 CALM 30.35F ALLENDALE FAIR 57 54 88 CALM 30.33F ...SOUTHERN MIDLANDS AND PEE DEE... CITY SKY/WX TMP DP RH WIND PRES REMARKS GEORGETOWN CLOUDY 54 54 100 CALM 30.38S KINGSTREE FAIR 50 46 87 CALM 30.36F ORANGEBURG CLOUDY 59 52 77 SE3 30.35F 6HR MIN TEMP: 58; 6HR MAX TEMP: 67; BARNWELL FAIR 57 54 88 CALM 30.34F AIKEN FAIR 55 50 82 SE5 30.36F MANNING FAIR 54 50 87 CALM 30.36F COLUMBIA PTCLDY 61 51 70 S3 30.34F 6HR MIN TEMP: 60; 6HR MAX TEMP: 69; SUMTER CLOUDY 57 49 75 CALM 30.33F 6HR MIN TEMP: 57; 6HR MAX TEMP: 67; FLORENCE CLOUDY 54 50 86 CALM 30.36F 6HR MIN TEMP: 54; 6HR MAX TEMP: 64; MYRTLE BEACH CLOUDY 57 54 88 CALM 30.38F N MYRTLE BEACH CLOUDY 61 55 81 S6 30.37F 6HR MIN TEMP: 55; 6HR MAX TEMP: 61; $$ GAZ063-065-086>088-099>101-113>116-118-119-134>141-150-250700- ...SOUTHEAST GEORGIA... CITY SKY/WX TMP DP RH WIND PRES REMARKS SAVANNAH ARPT CLOUDY 57 54 89 CALM 30.34F 6HR MIN TEMP: 57; 6HR MAX TEMP: 66; HUNTER AAF MOCLDY 61 58 92 CALM 30.30F 6HR MIN TEMP: 59; 6HR MAX TEMP: 66; FORT STEWART MOCLDY 54 52 92 CALM 30.30F 6HR MIN TEMP: 54; 6HR MAX TEMP: 65; STATESBORO PTCLDY 53 50 90 CALM 30.33F SYLVANIA PTCLDY N/A N/A N/A CALM 30.34F CLAXTON FAIR N/A N/A N/A CALM 30.33F ...CSRA...CENTRAL AND FAR SOUTHEAST GEORGIA... CITY SKY/WX TMP DP RH WIND PRES REMARKS THOMSON PTCLDY 60 52 74 SW8 30.36F AUGUSTA-BUSH MOCLDY 59 53 80 SE5 30.33F 6HR MIN TEMP: 59; 6HR MAX TEMP: 70; AUGUSTA-DANIEL CLOUDY 61 51 70 SE3 30.33F SWAINSBORO FAIR 59 54 82 CALM 30.33F VIDALIA CLEAR 59 55 88 E5 30.32F EASTMAN FAIR 60 47 61 SE3 30.32F HAZLEHURST FAIR 60 58 91 SE5 30.30F ALMA CLEAR 58 55 90 E5 30.30F 6HR MIN TEMP: 57; 6HR MAX TEMP: 69; WAYCROSS CLEAR 61 61 98 SE6 30.30F JESUP MOCLDY 55 52 88 CALM 30.32F BAXLEY FAIR 59 59 100 CALM 30.31F BRUNSWICK N/A 57 57 100 CALM 30.32F FOG SAINT SIMONS MOCLDY 64 57 78 E5 30.31F 6HR MIN TEMP: 63; 6HR MAX TEMP: 66; $$ SCZ027-028-034-036>038-045-046-048>050-GAZ119-141-250700- ...LAKE AND SUPPLEMENTAL COASTAL OBSERVATIONS... STATION/POSITION TIME TEMP WIND PRES WAVE SWELL AIR SEA DIR/SP/G HT/PER HT/PER/DIR (UTC) (F) (DEG/KT/KT) (MB) (FT/S) (FT/S/D) WINYAH BAY NOT AVBL LAKE MURRAY 0520 62 180/ 7/ 8 1027.1 ACE BASIN NERRS 0445 58 CALM 1028.0 FORT PULASKI 0548 64 61 130/ 4/ 6 1027.4F SAPELO ISLAND 0500 64 100/ 3 1027.0 $$ ANZ835-935-AMZ111-154-330-350-352-354-370-450-454-472-250700- ...C-MAN AND BUOY OBSERVATIONS... STATION/POSITION TIME TEMP WIND PRES WAVE SWELL AIR SEA DIR/SP/G HT/PER HT/PER/DIR (UTC) (F) (DEG/KT/KT) (MB) (FT/S) (FT/S/D) BUOY 41004 0450 69 71 150/ 16/ 17 1027.8 5/ 7 3/120/ 7 BUOY 41008 0450 64 62 90/ 6/ 8 1027.2 5/ 8 5/110/ 8 FOLLY BEACH CMAN 0500 63 160/ 6/ 7 1028.7F CAPERS NEARSHORE 0508 61 130/ 4/ 6 1028.2F FRIPP NEARSHORE 0508 63 60 130/ 6/ 8 1027.6F STATION/POSITION TIME TEMP WIND PRES WAVE SWELL AIR SEA DIR/SP/G HT/PER HT/PER/DIR (UTC) (F) (DEG/KT/KT) (MB) (FT/S) (FT/S/D) 5E ST. MARYS GA 0530 64 N/A 4/ 8 FRYING PAN BUOY 0550 69 73 190/ 12/ 16 1028.5F 3/ 8 3/130/ 8 BUOY 41025 0550 67 76 210/ 21/ 25 1027.9F 4/ 4 2/ 70/11 CAPE LOOKOUT NC 0500 65 210/ 10/ 13 1028.4F BUOY 41002 0550 64 73 110/ 10/ 17 1029.3F 5/ 8 5/ 70/ 8 BUOY 41010 NOT AVBL ST AUGUSTINE FL 0600 67 67 120/ 10/ 11 1026.4F $$

USA.gov is the U.S. government's official web portal to all federal, state and local government web resources and services.